ONEWEB-0038 (45145 NORAD) Tracking and Keplerian Element Data

This shows tracking and keplerian element data for the satellite.

Feedback or suggestion? Click here.




ElementValue
Catalog45145
NameONEWEB-0038
Epoch Orbit931
Epoch Day94.12669896
Epoch Year2020
RAAN145.4333
Inclination87.4565
Eccentricity0.002385
Argument of Perigee96.9385
Mean Anonmoly263.4548
Mean Motion14.7395346
Decay Rate-0.00347815
L11 45145U 20008Q 20094.12669896 -.00347815 00000-0 -55534-1 0 9994
L22 45145 87.4565 145.4333 0023850 96.9385 263.4548 14.73953460 9314

Live tracking and technical data element details for ONEWEB-0038 (NORAD 45145). ONEWEB-0038 can be tracked NOW for your location showing map with azimuth and elevation plus other details from your city location.

Track the satellite on the map from your city or location and see movement details for azimuth, elevation, latitude, longitude, range, height, and movement on the map or in text.







IsCatalogInMostPopularTable: catalog: 45145, numindb: 10
Update: records affected: 1



GetName: 45145 ONEWEB-0038

Hit Count: updated at: Mon, 06 Apr 2020 11:08:45 GMT